Columbia Airport, CA

5:49 AM PDT on September 18, 2019 (GMT -0700)
Columbia Airport

Weather History for KO22 - August, 2019

Change the Weather History Date:

Friday, August 23, 2019

  Actual Average (KMOD) Record (KMOD)
Temperature  
Mean Temperature 80 °F -  
Max Temperature 96 °F 90 °F 103 °F (1931)
Min Temperature 64 °F 58 °F 49 °F (1949)
Cooling Degree Days 15    
Growing Degree Days 30 (Base 50)    
Moisture  
Dew Point 56 °F    
Average Humidity 48    
Maximum Humidity 78    
Minimum Humidity 23    
Precipitation  
Precipitation 0.00 in - - ()
Sea Level Pressure  
Sea Level Pressure 29.85 in    
Wind  
Wind Speed 2 mph (SW)    
Max Wind Speed 10 mph    
Max Gust Speed 15 mph    
Visibility 10 miles    
Events      
Averages and records for this station are not official NWS values.
T = Trace of Precipitation, MM = Missing Value Source: NWS Daily Summary

Daily Weather History Graph

Daily Weather History Graph

Search for Another Location

Airport or City:

Astronomy

Aug. 23, 2019 Rise Set
Actual Time 6:23 AM PDT 7:44 PM PDT
Civil Twilight 5:56 AM PDT 8:11 PM PDT
Nautical Twilight 5:23 AM PDT 8:44 PM PDT
Astronomical Twilight 4:48 AM PDT 9:19 PM PDT
Moon No Moon Rise 1:58 PM PDT (8/23)
Length of Visible Light 14h 15m
Length of Day
13h 20m
Waning Gibbous, 48% of the Moon is Illuminated
Aug 23
Waning Gibbous
Aug 30
New
Sep 5
First Quarter
Sep 13
Full
Sep 21
Last Quarter

Hourly Weather History & Observations

Time (PDT) Temp. Heat Index Dew Point Humidity Pressure Visibility Wind Dir Wind Speed Gust Speed Precip Events Conditions
12:15 AM 69.8 °F - 55.4 °F 60% 29.82 in 10.0 mi Calm Calm - N/A   Clear
12:35 AM 69.8 °F - 55.4 °F 60% 29.82 in 10.0 mi Calm Calm - N/A   Clear
12:55 AM 68.0 °F - 55.4 °F 64% 29.82 in 10.0 mi Calm Calm - N/A   Clear
1:15 AM 69.8 °F - 57.2 °F 64% 29.81 in 10.0 mi Calm Calm - N/A   Clear
1:35 AM 68.0 °F - 57.2 °F 68% 29.81 in 10.0 mi North - - N/A   Clear
1:55 AM 68.0 °F - 57.2 °F 68% 29.81 in 10.0 mi Calm Calm - N/A   Clear
2:15 AM 68.0 °F - 57.2 °F 68% 29.81 in 10.0 mi North - - N/A   Clear
2:35 AM 68.0 °F - 57.2 °F 68% 29.80 in 10.0 mi Calm Calm - N/A   Clear
2:55 AM 66.2 °F - 57.2 °F 73% 29.80 in 10.0 mi Calm Calm - N/A   Clear
3:15 AM 66.2 °F - 57.2 °F 73% 29.80 in 10.0 mi Calm Calm - N/A   Clear
3:35 AM 66.2 °F - 57.2 °F 73% 29.80 in 10.0 mi Calm Calm - N/A   Clear
3:55 AM 66.2 °F - 57.2 °F 73% 29.80 in 10.0 mi Calm Calm - N/A   Clear
4:15 AM 68.0 °F - 57.2 °F 68% 29.80 in 10.0 mi Calm Calm - N/A   Clear
4:35 AM 68.0 °F - 57.2 °F 68% 29.80 in 10.0 mi North - - N/A   Clear
4:55 AM 66.2 °F - 57.2 °F 73% 29.80 in 10.0 mi Calm Calm - N/A   Clear
5:15 AM 66.2 °F - 57.2 °F 73% 29.81 in 10.0 mi Calm Calm - N/A   Clear
5:35 AM 66.2 °F - 57.2 °F 73% 29.82 in 10.0 mi North - - N/A   Clear
5:55 AM 66.2 °F - 57.2 °F 73% 29.82 in 10.0 mi North - - N/A   Clear
6:15 AM 66.2 °F - 57.2 °F 73% 29.83 in 10.0 mi Calm Calm - N/A   Clear
6:35 AM 64.4 °F - 57.2 °F 77% 29.83 in 10.0 mi North - - N/A   Clear
6:55 AM 64.4 °F - 57.2 °F 77% 29.83 in 10.0 mi Calm Calm - N/A   Clear
7:15 AM 66.2 °F - 59.0 °F 78% 29.84 in 10.0 mi North - - N/A   Clear
7:35 AM 68.0 °F - 59.0 °F 73% 29.84 in 10.0 mi Calm Calm - N/A   Clear
7:55 AM 71.6 °F - 60.8 °F 69% 29.85 in 10.0 mi Calm Calm - N/A   Clear
8:15 AM 75.2 °F - 60.8 °F 61% 29.86 in 10.0 mi Calm Calm - N/A   Clear
8:35 AM 78.8 °F - 59.0 °F 51% 29.86 in 10.0 mi Calm Calm - N/A   Clear
8:55 AM 80.6 °F 81.1 °F 59.0 °F 48% 29.86 in 10.0 mi Calm Calm - N/A   Clear
9:15 AM 82.4 °F 82.0 °F 57.2 °F 42% 29.87 in 10.0 mi Calm Calm - N/A   Clear
9:35 AM 84.2 °F 83.5 °F 57.2 °F 40% 29.87 in 10.0 mi Calm Calm - N/A   Clear
9:55 AM 86.0 °F 84.9 °F 57.2 °F 37% 29.87 in 10.0 mi Calm Calm - N/A   Clear
10:15 AM 86.0 °F 84.9 °F 57.2 °F 37% 29.87 in 10.0 mi Variable 4.6 mph - N/A   Clear
10:35 AM 87.8 °F 86.5 °F 57.2 °F 35% 29.88 in 10.0 mi Calm Calm - N/A   Clear
11:15 AM 91.4 °F 89.4 °F 55.4 °F 29% 29.87 in 10.0 mi Variable 4.6 mph - N/A   Clear
11:35 AM 91.4 °F 89.1 °F 53.6 °F 28% 29.87 in 10.0 mi Variable 6.9 mph - N/A   Clear
11:55 AM 91.4 °F 89.1 °F 53.6 °F 28% 29.87 in 10.0 mi Variable 6.9 mph - N/A   Clear
12:15 PM 91.4 °F 89.1 °F 53.6 °F 28% 29.87 in 10.0 mi Variable 6.9 mph - N/A   Clear
12:35 PM 93.2 °F 90.8 °F 53.6 °F 26% 29.88 in 10.0 mi Variable 4.6 mph 13.8 mph N/A   Clear
12:55 PM 95.0 °F 92.7 °F 53.6 °F 25% 29.87 in 10.0 mi Variable 8.1 mph - N/A   Clear
1:15 PM 93.2 °F 90.8 °F 53.6 °F 26% 29.87 in 10.0 mi Calm Calm - N/A   Clear
1:35 PM 95.0 °F 92.7 °F 53.6 °F 25% 29.86 in 10.0 mi Calm Calm - N/A   Clear
1:55 PM 96.8 °F 94.4 °F 53.6 °F 23% 29.86 in 10.0 mi Calm Calm - N/A   Clear
2:15 PM 95.0 °F 92.7 °F 53.6 °F 25% 29.86 in 10.0 mi Variable 5.8 mph - N/A   Clear
2:35 PM 96.8 °F 94.4 °F 53.6 °F 23% 29.85 in 10.0 mi Calm Calm 11.5 mph N/A   Clear
2:55 PM 96.8 °F 94.4 °F 53.6 °F 23% 29.85 in 10.0 mi Variable 4.6 mph 11.5 mph N/A   Clear
3:15 PM 96.8 °F 94.4 °F 53.6 °F 23% 29.84 in 10.0 mi Variable 5.8 mph - N/A   Clear
3:35 PM 95.0 °F 92.7 °F 53.6 °F 25% 29.83 in 10.0 mi Variable 8.1 mph - N/A   Clear
3:55 PM 96.8 °F 95.1 °F 55.4 °F 25% 29.83 in 10.0 mi Variable 10.4 mph - N/A   Clear
4:15 PM 96.8 °F 95.1 °F 55.4 °F 25% 29.83 in 10.0 mi WSW 8.1 mph 13.8 mph N/A   Clear
4:35 PM 95.0 °F 93.0 °F 55.4 °F 26% 29.83 in 10.0 mi Variable 5.8 mph - N/A   Clear
4:55 PM 95.0 °F 93.0 °F 55.4 °F 26% 29.83 in 10.0 mi Variable 8.1 mph 15.0 mph N/A   Clear
5:15 PM 95.0 °F 93.0 °F 55.4 °F 26% 29.83 in 10.0 mi WSW 8.1 mph - N/A   Clear
5:35 PM 93.2 °F 91.3 °F 55.4 °F 28% 29.83 in 10.0 mi Variable 6.9 mph - N/A   Clear
5:55 PM 93.2 °F 91.3 °F 55.4 °F 28% 29.83 in 10.0 mi Variable 8.1 mph - N/A   Clear
6:15 PM 91.4 °F 89.4 °F 55.4 °F 29% 29.83 in 10.0 mi Variable 5.8 mph 12.7 mph N/A   Clear
6:55 PM 89.6 °F 87.7 °F 55.4 °F 31% 29.84 in 10.0 mi Variable 6.9 mph - N/A   Clear
7:15 PM 87.8 °F 85.7 °F 53.6 °F 31% 29.84 in 10.0 mi Variable 6.9 mph 12.7 mph N/A   Clear
7:35 PM 86.0 °F 84.5 °F 55.4 °F 35% 29.85 in 10.0 mi SW 4.6 mph - N/A   Clear
7:55 PM 84.2 °F 83.0 °F 55.4 °F 37% 29.86 in 10.0 mi Variable 6.9 mph - N/A   Clear
8:15 PM 84.2 °F 83.0 °F 55.4 °F 37% 29.86 in 10.0 mi Variable 5.8 mph - N/A   Clear
8:35 PM 82.4 °F 82.0 °F 57.2 °F 42% 29.87 in 10.0 mi SSW 3.5 mph - N/A   Clear
8:55 PM 82.4 °F 82.0 °F 57.2 °F 42% 29.87 in 10.0 mi Variable 4.6 mph - N/A   Clear
9:15 PM 78.8 °F - 57.2 °F 47% 29.88 in 10.0 mi SW 3.5 mph - N/A   Clear
9:35 PM 78.8 °F - 57.2 °F 47% 29.89 in 10.0 mi Variable 4.6 mph - N/A   Clear
9:55 PM 78.8 °F - 57.2 °F 47% 29.89 in 10.0 mi Calm Calm - N/A   Clear
10:15 PM 77.0 °F - 57.2 °F 50% 29.89 in 10.0 mi Calm Calm - N/A   Clear
10:35 PM 75.2 °F - 57.2 °F 53% 29.89 in 10.0 mi South 3.5 mph - N/A   Clear
10:55 PM 73.4 °F - 57.2 °F 57% 29.89 in 10.0 mi Calm Calm - N/A   Clear
11:15 PM 73.4 °F - 57.2 °F 57% 29.89 in 10.0 mi Calm Calm - N/A   Clear
11:35 PM 71.6 °F - 57.2 °F 60% 29.89 in 10.0 mi SSW 3.5 mph - N/A   Clear
11:55 PM 71.6 °F - 57.2 °F 60% 29.89 in 10.0 mi Calm Calm - N/A   Clear